Location: ????? ??????
(37.8317°N, 23.8750°E)
Time: 12:19:52
(UTC+00:00)

NOSS 2-1 (E) - Pass Details

Date: 20 January 2021
Orbit: 434 x 1768 km, 63.3° (Epoch: 27 February)

Event Time Altitude Azimuth Distance (km) Brightness Sun altitude
Rises 17:06:54 0° 199° (SSW) 2,577 7.2 -18.1°
Reaches altitude 10° 17:09:11 10° 193° (SSW) 1,610 6.0 -18.5°
Enters shadow 17:12:02 42° 145° (SE) 637 3.4 -19.1°
